Weather Roundup
Issued by NWS Sterling, VA

Home | Current Version | Previous Version | Text Only | Print | Product List | Glossary On
Versions: 1 2 3 4 5 6 7 8 9 10 11 12 13 14 15 16 17 18 19 20 21 22 23 24 25 26 27 28 29 30 31 32 33 34 35 36 37 38 39 40 41 42 43 44 45 46 47 48 49 50
000
NZUS51 KLWX 241011
HRRLWX

HOURLY OBSERVATIONS AROUND THE LWX CWA
500 AM EST THU JAN 24 2019

Note: "FAIR" indicates few or no clouds below 12,000 feet
with no significant weather and/or obstructions to visibility.

 * =Non NWS site. Station does not report significant weather
    and/or obstructions to visibility.

...DOWNTOWN AREAS...

CITY           SKY/WX    TMP DP  RH WIND       PRES   REMARKS
WASHINGTON NAT LGT RAIN  55  52  89 S15       29.61F
MD SCIENCE CTR   N/A     52  50  93 MISG      29.65F


...WASHINGTON SUBURBS...

CITY           SKY/WX    TMP DP  RH WIND       PRES   REMARKS
DULLES         LGT RAIN  56  56 100 S15G24    29.58F
MANASSAS*      CLOUDY    57  56  96 S15G22    29.58F
LEESBURG*      DRZL/FOG  45  45 100 S6        29.59F VSB 3/4
GAITHERSBURG*  LGT RAIN  55  54  96 SE20G29   29.60F
QUANTICO       LGT RAIN  46  46 100 SW8       29.62F VSB 1/4
ANDREWS AFB    LGT RAIN  57  55  95 S20       29.62F

...CENTRAL VIRGINIA...

CITY           SKY/WX    TMP DP  RH WIND       PRES   REMARKS
CULPEPER*      LGT RAIN  45  44  95 S3        29.57F
CHARLOTTESVILL LGT RAIN  56  53  90 S13       29.56F
WARRENTON*     DRIZZLE   58  55  88 S10G16    29.57F
ORANGE*        LGT RAIN  55  55 100 S7G16     29.57F
GORDONSVILLE*  CLOUDY    57  57 100 S10G20    29.56F
STAFFORD*      LGT RAIN  58  58 100 S13G18    29.64F
FREDERICKSBRG* LGT RAIN  58  58 100 S13       29.60F
LOUISA*        LGT RAIN  57  56  97 SE10G23   29.62F
ASHLAND        LGT RAIN  59  56  89 S15G23    29.66F
RICHMOND       LGT RAIN  59  56  89 S15       29.65F

...NORTHEAST/CENTRAL MARYLAND...

CITY           SKY/WX    TMP DP  RH WIND       PRES   REMARKS
BWI AIRPORT    LGT RAIN  51  51 100 SE10      29.63F
ANNAPOLIS      LGT RAIN  51  47  86 S15G25    29.65F FOG
WESTMINSTER*   RAIN      52  52 100 S12G18    29.58F

...SOUTHERN MARYLAND...

CITY           SKY/WX    TMP DP  RH WIND       PRES   REMARKS
PATUXENT RIVER CLOUDY    51  51 100 SE7       29.69F
ST MARYS CITY    N/A    N/A N/A N/A MISG      29.69F

...MARYLAND EASTERN SHORE...

CITY           SKY/WX    TMP DP  RH WIND       PRES   REMARKS
SALISBURY      CLOUDY    58  56  93 S18G28    29.75F
OCEAN CITY     FOG       48  48 100 S7        29.78F VSB 1
EASTON*        DRIZZLE   56  54  92 S17G28    29.74F

...SHENANDOAH VALLEY...

CITY           SKY/WX    TMP DP  RH WIND       PRES   REMARKS
MARTINSBURG    LGT RAIN  51  50  96 S13G20    29.52F
HAGERSTOWN APT LGT RAIN  52  48  86 S21G29    29.53F
WINCHESTER*    DRIZZLE   50  48  93 S9        29.56F
FRONT ROYAL*   CLOUDY    54  52  94 SE6       29.52F
LURAY*         RAIN      55  54  94 SW9G17    29.52F
NEW MARKET*    CLOUDY    55  53  96 SW7       29.51F
WAYNESBORO*    CLOUDY    55  55  97 S6        29.54F

...APPALACHIANS...

CITY           SKY/WX    TMP DP  RH WIND       PRES   REMARKS
OAKLAND*       CLOUDY    43  43 100 W7        29.53F
HOT SPRINGS*   RAIN      50  50 100 S16G28    29.56F VSB 3/4
ELKINS         RAIN      48  46  93 N6        29.55F FOG
BEDFORD PA*    SNOW      34  33  96 CALM      29.53F VSB 1/2
JOHNSTOWN      LGT RAIN  44  41  89 SW5       29.50F VSB 1/4
ALTOONA        LGT RAIN  42  42 100 SW8       29.52F VSB 1/4

...SOUTHERN PENNSYLVANIA/DELAWARE...

CITY           SKY/WX    TMP DP  RH WIND       PRES   REMARKS
YORK           LGT RAIN  40  40 100 CALM      29.58F FOG
WILMINGTON     RAIN      51  49  92 S18       29.69F FOG

...MARINE OBSERVATIONS...

STATION/POSITION TIME  TEMP    WIND        PRES
                       AIR SEA DIR/SP/G
                 (UTC) (F)     (DEG/KT/KT) (MB)
THOMAS PT LIGHT  1000   46 38  150/ 23/ 24 1004.6F
COVE POINT       0948   43     180/ 18/ 21 1006.3F
BALT KEY BRIDGE  0948   49     160/ 14/ 17 1003.6F
LEWISETTA        0942   53 38  150/  9/ 10 1005.8F
SOLOMONS ISLAND  0948   54 39  170/ 16/ 18 1005.2F
PINEY POINT      0942          150/ 15/ 16   N/A





USA.gov is the U.S. government's official web portal to all federal, state and local government web resources and services.